Wind_Speed
16 17 18 20 20 21 22 23 24 22 19 16 14 10 8 7 6 4 4 4 6 5 12 16 15 12 9 8 8 3 5 8 6 8 8 8 9 8 9 3 3 9 7 9 12 11 13 10 9 10 6 9 11 10
16 17 18 19 20 21 22 23 25 23 20 16 13 11 8 7 6 3 5 3 4 6 7 19 22 22 23 20 10 5 8 4 3 2 3 5 5 3 8 9 3 12 9 6 2 2 3 12 5 5 5 9 7 7
17 17 18 19 20 21 22 22 24 25 21 17 13 11 11 9 7 7 6 5 3 4 8 8 4 12 16 30 28 10 8 8 4 3 5 2 6 3 5 9 4 5 5 6 7 5 5 6 5 7 6 7 5 4
18 18 19 19 20 21 22 22 23 24 24 18 14 13 12 11 10 10 9 7 6 5 5 1 3 7 10 13 20 30 21 4 6 5 7 5 3 2 4 4 5 5 1 4 9 6 4 7 5 6 6 4 4 4
18 19 20 20 21 22 22 23 24 24 24 21 18 18 17 15 12 11 14 15 14 5 5 8 24 5 6 6 14 18 21 15 8 6 7 8 2 4 4 2 7 5 5 5 3 8 3 5 5 5 6 7 5 5
18 20 21 22 23 23 23 24 26 29 27 20 18 22 20 13 8 4 3 6 17 13 3 4 7 4 3 4 9 12 11 9 9 5 6 5 2 4 4 6 1 5 6 6 3 2 3 8 7 5 5 5 4 4
18 20 22 23 24 24 24 26 30 26 17 19 25 25 18 9 12 5 5 3 13 13 3 5 4 4 3 6 4 5 10 6 5 6 7 9 5 4 8 10 4 3 2 5 5 1 4 5 3 6 4 5 4 3
19 20 22 24 25 25 24 27 25 18 20 26 23 14 4 9 9 6 5 9 16 4 3 4 4 4 5 5 4 5 6 6 7 5 4 7 7 5 9 11 14 8 8 6 6 8 5 1 4 4 4 5 6 5
18 20 22 24 26 25 24 25 19 21 27 21 9 4 2 2 2 2 2 11 11 3 3 4 5 1 1 2 1 5 5 5 4 6 7 4 8 6 6 10 12 4 5 4 4 5 7 9 7 6 6 7 8 7
18 20 22 24 26 25 25 21 17 24 21 8 1 5 3 3 8 11 3 3 3 4 3 4 6 6 4 2 4 3 3 3 5 6 4 5 10 4 2 4 5 6 8 7 8 9 8 9 9 8 8 6 7 7
17 19 22 25 26 25 20 14 16 23 8 4 3 2 3 3 5 3 2 3 3 4 4 4 6 8 2 6 2 2 2 3 4 4 5 4 5 5 5 5 6 9 10 11 12 15 8 10 9 9 8 9 9 8
17 20 22 25 25 18 15 12 16 13 6 6 7 5 4 4 4 3 2 3 4 4 4 4 4 5 5 3 3 3 3 2 3 2 4 4 5 5 6 8 8 10 10 11 12 14 16 14 10 10 10 11 11 11
18 20 22 25 23 11 14 21 18 9 2 2 2 3 2 2 2 1 1 3 3 3 4 3 2 2 4 4 4 3 4 3 1 3 2 4 6 5 7 7 9 10 10 10 10 12 14 12 14 14 12 14 14 12
18 20 24 27 6 13 23 21 10 2 3 3 2 3 3 2 2 1 5 6 4 5 6 6 5 3 4 3 2 4 1 2 3 4 3 5 7 8 9 9 10 12 11 10 7 8 11 12 13 17 17 17 16 13
19 22 25 6 11 21 24 12 2 3 3 2 2 3 2 4 6 7 6 5 3 5 6 7 6 4 4 4 3 3 3 4 2 2 3 5 8 9 10 10 11 12 11 9 6 5 9 14 14 15 18 17 16 14
18 18 2 6 19 25 16 1 1 1 2 3 3 4 3 6 6 6 6 6 3 6 6 3 4 4 5 3 3 6 3 3 2 3 5 5 8 10 11 12 11 11 10 9 4 5 11 13 14 17 18 18 16 14
15 4 8 16 24 16 4 3 2 3 2 3 4 5 6 7 7 4 4 4 5 6 3 3 3 3 4 4 3 1 3 3 3 6 7 8 10 11 12 11 11 10 8 7 6 9 14 18 20 19 14 16 16 14
6 9 16 19 15 8 2 4 3 3 5 5 4 2 3 7 6 6 2 3 4 4 4 2 4 3 2 5 3 2 2 5 5 6 8 9 10 11 10 11 10 10 6 6 8 11 14 16 12 9 13 13 13 14
13 18 18 8 4 2 3 4 3 3 4 3 4 3 3 6 3 5 5 3 2 3 3 3 4 0 3 3 6 7 7 6 7 9 8 9 11 11 11 12 11 6 5 6 8 6 8 13 16 17 12 8 11 15
18 16 7 5 5 4 3 3 2 4 3 2 4 4 4 5 4 4 3 3 2 2 2 2 1 3 7 8 8 9 9 8 8 9 9 7 9 9 9 9 8 4 4 5 8 14 15 13 13 16 16 15 15 15
8 3 4 1 3 4 3 2 3 3 3 4 3 4 2 3 2 5 5 3 1 2 2 2 5 5 8 8 12 11 7 7 9 9 9 8 7 10 12 11 10 7 5 5 7 7 14 16 13 13 13 13 10 9
3 4 2 3 3 4 3 5 4 2 3 4 3 2 3 0 2 3 1 4 2 1 2 3 5 5 8 9 9 12 11 14 15 13 11 10 5 4 3 1 5 6 3 4 13 9 11 8 5 11 11 11 14 12
3 2 4 4 3 3 4 3 4 3 3 2 3 2 2 2 2 3 1 1 2 3 3 2 3 15 11 17 10 9 12 9 4 5 6 9 14 16 16 16 14 9 8 12 21 15 10 8 4 4 9 12 12 9
2 3 3 3 5 3 3 4 3 3 3 3 3 4 0 2 3 3 1 0 2 2 2 1 6 3 5 7 5 5 11 16 17 18 13 9 7 10 18 14 17 21 20 18 16 12 12 8 5 5 9 8 4 5
2 2 3 4 4 4 4 3 3 3 3 3 4 2 1 1 2 3 2 2 3 2 4 3 4 5 4 4 3 7 11 8 4 3 6 11 12 11 12 9 6 5 4 4 4 5 5 6 5 7 6 6 5 3
4 5 6 4 4 4 4 2 4 3 2 2 2 1 1 2 2 2 3 3 0 3 3 4 3 3 2 3 5 4 6 6 3 3 5 7 9 6 5 5 5 9 6 6 6 7 9 7 6 4 4 3 2 2
4 5 5 4 3 2 3 3 2 4 3 2 1 2 2 2 1 2 2 2 1 3 3 2 1 3 4 4 4 6 6 8 10 10 10 13 14 15 15 13 11 12 13 14 15 14 13 11 10 8 7 8 7 5
5 3 7 6 5 5 4 2 3 3 2 1 2 2 2 2 2 2 4 4 1 1 1 2 3 2 3 3 2 1 5 6 8 12 16 16 16 16 17 19 20 23 21 18 15 13 12 11 11 11 10 10 9 9
4 5 5 7 6 5 4 3 3 2 2 2 2 2 1 2 2 3 6 4 1 1 3 3 6 3 4 3 4 5 2 4 8 9 10 9 9 14 15 16 17 17 16 19 21 20 19 16 13 11 11 12 12 13
5 6 5 6 8 6 4 3 1 3 1 2 1 2 2 2 4 4 5 4 4 4 2 2 2 1 2 6 8 9 9 8 7 9 9 10 11 13 13 14 14 15 16 16 14 13 10 12 13 15 15 14 13 13
2 6 5 5 5 3 3 4 4 3 2 1 1 2 2 3 4 5 5 5 5 3 4 3 5 5 4 7 6 7 8 10 11 12 13 13 12 12 11 11 12 13 14 16 17 15 12 14 15 15 16 15 13 13
5 7 6 6 4 3 4 5 5 4 4 3 2 3 4 3 4 5 8 8 8 6 3 1 5 7 4 5 7 9 9 9 9 9 8 8 7 7 7 8 9 10 12 14 16 16 14 14 14 15 16 17 15 13
6 5 5 2 3 5 3 4 3 3 4 4 3 4 4 2 1 3 7 10 10 12 10 8 5 4 5 2 4 6 6 7 7 7 6 5 4 3 3 4 6 7 7 8 10 11 12 11 12 12 13 13 13 13
Wind_Direction
341 345 347 349 351 353 354 353 353 351 344 344 340 335 332 328 319 335 297 249 274 272 285 271 266 256 252 244 260 69 255 202 232 242 246 232 250 215 251 231 208 269 250 204 221 222 244 152 157 214 94 128 136 137
337 339 341 343 346 348 349 350 350 348 341 338 337 331 318 313 309 281 281 265 230 247 283 298 268 260 256 263 276 245 292 323 316 280 270 307 227 241 253 245 157 242 280 293 62 96 56 153 31 85 127 128 128 136
340 338 338 340 341 343 345 346 347 349 344 334 326 320 316 308 286 245 266 250 246 270 277 249 243 244 238 236 238 243 247 250 249 355 307 270 253 290 226 243 257 194 280 290 319 95 114 138 109 115 107 115 128 120
344 342 340 337 336 338 339 340 340 342 343 335 324 320 308 296 286 255 240 239 228 293 280 5 168 238 281 236 223 224 241 216 275 263 265 270 255 227 280 343 277 30 234 279 259 234 187 177 158 143 133 136 138 121
341 341 340 338 335 334 333 333 333 332 332 324 318 315 306 299 283 259 252 238 226 272 314 304 305 287 211 219 219 215 223 236 250 255 229 240 265 228 190 265 250 202 275 246 339 29 355 62 153 171 148 130 131 147
335 338 338 337 336 333 332 331 331 328 326 322 318 316 308 292 259 239 249 206 210 201 277 290 4 254 221 217 213 211 215 216 224 235 252 256 285 262 257 255 61 250 242 274 332 339 114 126 136 142 137 131 140 145
324 331 335 335 336 334 333 332 330 333 339 333 323 317 308 247 195 231 354 82 170 172 246 285 267 160 209 163 152 170 190 204 211 222 238 256 223 217 257 256 228 188 327 325 265 240 216 197 174 166 165 149 155 136
317 325 330 332 334 334 333 332 332 336 335 332 327 333 4 156 194 262 253 198 164 220 246 278 275 240 176 210 163 169 175 194 202 232 222 229 210 229 251 249 256 247 277 285 268 238 285 355 165 184 193 163 183 190
313 322 327 331 332 332 332 330 326 331 334 329 333 118 102 125 178 2 212 167 178 266 281 236 289 348 174 230 189 188 197 192 152 226 222 211 215 218 234 244 247 211 256 289 279 231 230 226 216 204 194 199 213 196
309 318 324 328 330 331 329 327 324 332 340 348 107 224 137 68 125 126 182 158 215 212 233 258 280 268 303 231 175 206 208 241 206 208 141 226 239 99 130 314 289 270 267 259 257 235 225 242 235 216 210 203 195 167
307 315 322 327 330 330 332 326 329 344 10 342 322 9 358 290 172 205 247 236 164 240 224 261 293 298 275 287 300 223 238 206 235 171 213 224 231 110 4 320 325 317 296 270 254 268 257 251 225 204 189 171 159 152
306 314 320 325 329 327 337 332 330 342 329 316 295 292 283 222 226 253 250 74 324 353 316 296 323 320 293 301 270 196 265 232 251 161 219 228 90 36 354 338 335 325 304 287 261 248 243 237 215 193 175 169 154 135
306 313 319 324 327 324 331 327 326 311 302 198 233 242 270 214 304 308 312 233 223 218 250 248 275 255 279 243 255 252 239 231 150 218 223 55 66 22 354 347 342 334 320 304 279 251 232 219 190 176 168 164 150 145
307 314 319 320 309 334 335 335 330 177 186 256 289 293 259 231 349 245 254 302 310 253 295 291 265 231 238 252 255 256 199 255 239 226 153 90 23 4 349 341 334 333 333 325 305 234 208 187 180 169 162 160 150 151
310 316 318 264 329 333 332 335 71 149 254 264 238 274 265 327 289 291 290 290 307 295 323 314 282 241 258 253 231 283 231 235 249 39 86 29 1 349 344 338 332 329 329 322 310 231 190 174 169 160 159 154 145 142
313 324 245 306 326 324 325 290 247 221 238 265 233 264 314 286 351 354 349 325 329 324 326 274 283 267 235 258 226 218 256 220 76 28 4 354 351 337 333 330 324 312 311 302 284 232 188 171 164 150 150 147 145 143
317 252 291 314 318 324 327 191 193 233 284 233 230 246 274 284 305 306 310 310 323 312 319 294 243 278 306 250 241 356 358 22 343 316 316 332 316 311 313 314 304 312 313 281 255 210 187 167 154 153 151 154 151 151
276 293 302 320 320 334 223 212 247 242 246 229 253 321 255 283 294 290 333 311 318 330 324 276 304 255 231 288 351 32 324 307 301 294 295 309 307 302 299 301 299 311 309 272 247 189 175 157 151 131 132 143 145 146
291 301 311 292 286 289 261 194 229 263 253 286 270 256 270 291 294 288 296 2 281 279 288 266 228 269 278 277 310 308 300 280 296 303 298 300 295 289 291 297 282 291 280 227 203 145 143 131 114 105 110 153 166 162
303 308 281 280 194 240 237 203 213 273 270 10 270 273 304 325 333 312 333 2 357 286 270 313 282 265 291 299 298 292 289 306 298 289 294 295 293 286 303 292 273 247 215 152 149 132 121 114 148 181 180 181 161 161
319 251 312 163 215 248 297 270 231 247 291 260 297 300 305 286 11 22 39 339 31 342 309 323 314 311 311 299 293 293 281 283 275 271 280 295 312 315 303 291 248 212 191 170 144 125 141 165 178 188 173 161 149 161
252 264 244 213 252 187 255 229 279 329 255 273 278 223 262 58 51 55 54 24 24 310 300 320 344 324 318 315 307 303 293 289 282 279 275 271 267 278 297 32 126 92 59 102 114 98 95 103 150 165 161 145 156 202
260 242 228 219 241 217 255 189 245 202 256 257 252 240 206 142 111 178 170 166 247 202 182 252 337 334 342 345 26 30 17 359 5 33 90 63 59 50 62 58 34 65 69 53 72 76 77 96 101 157 146 159 156 159
240 246 239 224 200 252 195 219 216 247 246 249 270 286 303 115 172 233 112 58 254 275 245 153 138 262 304 347 3 6 12 24 56 51 52 74 77 67 75 63 43 63 69 61 66 68 68 52 80 217 147 128 117 183
258 233 185 254 216 230 220 205 214 224 259 305 291 252 131 174 223 201 178 100 339 32 66 47 138 174 267 279 284 326 355 53 34 75 121 83 99 113 118 107 94 38 64 112 159 171 195 209 181 123 130 100 93 124
253 203 196 218 181 218 201 230 212 236 291 281 257 27 245 257 230 168 168 136 153 29 39 48 355 41 54 17 323 347 6 1 294 108 30 46 66 80 90 116 113 67 58 82 104 101 87 82 84 90 98 119 78 188
252 224 200 224 274 236 242 241 259 264 253 248 287 295 270 255 170 105 151 153 69 36 16 47 52 326 23 33 16 359 22 64 68 78 77 71 69 66 73 73 67 57 68 68 59 59 62 63 60 54 62 79 65 44
245 259 223 177 211 229 260 255 226 217 222 150 262 244 257 307 51 140 148 156 159 14 35 53 53 24 21 25 19 57 111 115 108 106 94 83 78 80 83 83 79 70 66 61 56 53 54 50 47 45 49 52 50 38
231 210 221 218 217 204 228 233 237 172 143 192 248 260 228 105 90 134 143 157 187 202 169 124 82 99 113 90 75 60 39 134 102 90 97 91 89 78 83 78 70 67 69 68 64 64 63 60 55 60 63 64 62 61
227 200 219 207 209 214 205 220 200 116 139 357 323 227 204 166 134 147 162 173 188 175 129 33 57 35 50 107 97 76 62 47 51 97 105 107 109 98 81 74 69 63 60 60 65 72 71 75 72 66 61 57 59 64
209 196 229 221 213 210 139 141 129 123 153 139 110 276 84 114 142 167 186 198 199 193 191 178 147 150 123 87 84 102 92 76 78 88 103 112 106 88 80 78 76 71 67 62 56 52 61 67 68 67 62 59 52 48
197 208 208 203 171 139 171 181 186 196 178 178 162 166 164 186 173 179 187 181 190 201 185 246 184 132 103 95 87 85 88 106 113 116 123 109 101 101 97 92 82 75 71 64 58 62 69 71 68 68 66 54 48 48
208 201 226 187 163 184 178 204 193 208 213 188 189 197 201 211 185 118 167 190 198 196 187 199 174 160 162 137 108 123 113 114 137 149 147 134 129 127 121 114 107 99 92 86 83 85 84 81 75 67 61 56 53 53
Height
833 831 828 825 821 818 814 810 806 802 799 796 793 791 790 789 788 788 785 785 784 766 750 747 746 742 737 736 735 727 729 721 717 724 716 705 713 702 706 701 709 718 707 698 693 704 710 671 684 692 681 674 678 683
831 829 826 823 819 816 812 809 804 800 797 794 792 790 788 787 787 786 785 784 783 782 753 748 744 740 738 734 732 726 722 724 715 725 717 704 709 707 705 711 701 721 690 685 679 685 681 677 680 682 676 684 686 687
829 826 823 820 817 813 810 806 802 798 794 791 789 788 786 785 784 785 784 783 783 776 749 739 725 728 730 732 734 735 723 720 718 718 712 715 723 705 716 704 702 697 694 690 689 685 686 685 685 684 683 686 689 690
827 824 821 817 814 810 807 803 800 796 792 788 786 784 783 781 781 781 780 779 780 775 757 721 723 724 724 724 726 726 723 723 721 718 714 708 720 712 699 703 700 692 699 692 687 682 685 686 686 687 689 689 691 694
825 822 818 815 811 807 804 800 796 792 788 784 782 780 778 777 776 775 775 774 776 775 750 730 722 716 718 719 721 724 725 724 722 716 712 708 697 708 702 704 697 690 689 697 686 682 686 688 687 690 691 693 696 698
822 819 816 812 808 804 800 795 791 786 782 778 776 773 771 771 771 773 766 766 769 774 770 736 716 713 714 716 717 718 720 721 721 716 705 696 696 701 700 699 688 689 687 685 687 689 685 686 689 690 692 694 697 698
819 816 812 808 804 800 795 791 785 781 777 774 770 766 763 764 767 766 760 766 767 772 768 745 712 706 710 712 713 714 717 717 716 716 709 701 696 702 696 699 688 689 688 689 687 690 692 689 688 691 692 694 699 699
814 812 809 805 800 796 791 786 781 777 774 770 764 760 757 759 765 763 762 764 766 768 763 745 716 706 704 699 704 709 711 713 712 704 698 699 693 699 700 688 686 685 689 688 688 688 688 689 691 693 693 694 697 698
810 807 804 801 796 791 787 782 777 773 769 764 762 761 762 762 761 762 761 762 766 768 752 731 717 703 700 697 697 703 703 706 698 703 693 692 690 697 685 685 683 685 690 687 686 686 688 690 690 690 690 693 695 694
805 803 800 796 792 787 782 777 774 770 764 761 761 760 757 762 762 764 764 766 766 759 756 740 716 713 704 692 699 703 701 699 699 692 687 692 681 681 687 690 690 691 690 690 689 684 687 691 687 687 687 688 690 694
801 798 795 792 787 783 778 775 772 768 764 763 759 755 761 761 763 761 752 752 747 744 733 724 717 713 700 705 701 699 699 697 700 693 695 688 682 684 690 690 689 689 688 685 684 680 673 679 680 682 685 688 691 695
796 793 791 787 783 779 776 773 770 769 768 767 767 765 762 756 747 746 740 751 752 743 737 735 730 723 714 706 704 695 698 695 695 686 692 682 688 691 690 690 688 687 682 680 680 680 679 677 676 679 684 688 693 699
791 788 785 782 778 776 773 770 767 765 765 766 765 758 749 745 750 742 750 749 745 741 733 729 729 728 714 708 704 699 697 692 686 693 683 680 689 690 690 688 686 683 679 675 673 673 672 672 675 680 683 689 694 699
786 784 780 777 774 772 769 765 762 762 764 756 751 756 743 736 731 735 737 732 728 728 726 724 722 718 706 706 698 697 690 691 692 689 688 686 693 691 689 687 685 682 678 675 671 670 669 672 676 680 685 690 693 699
781 778 775 773 772 769 765 762 760 762 760 750 751 753 735 728 727 727 726 727 725 723 719 715 712 711 706 702 693 691 694 692 685 689 692 690 693 692 690 688 685 682 679 675 672 669 670 673 677 681 687 691 696 702
777 774 771 770 768 765 762 761 761 761 759 751 747 738 731 728 723 720 722 724 725 722 722 718 717 706 700 697 694 691 689 687 692 693 690 691 694 694 693 691 688 684 680 677 673 671 670 672 676 683 689 693 698 701
774 772 770 768 765 761 760 761 761 758 753 751 736 732 732 733 726 729 727 727 725 722 720 716 717 706 699 700 693 689 696 704 709 707 701 698 701 699 695 692 686 680 678 678 674 673 670 672 677 683 688 694 697 702
771 770 766 765 761 759 760 759 754 749 743 733 733 727 733 726 727 725 724 726 726 724 723 721 717 711 716 708 696 706 707 703 702 700 697 695 696 695 692 687 683 680 677 677 676 674 673 675 680 687 694 697 701 704
766 764 762 761 760 761 756 754 754 741 730 726 726 726 728 723 721 725 724 726 729 729 727 721 717 719 714 706 705 701 701 699 695 693 692 693 693 690 685 682 680 679 677 678 676 678 680 683 686 690 696 699 701 704
761 758 757 757 758 757 752 748 751 744 731 725 725 723 721 720 723 722 723 725 728 728 724 722 721 718 711 705 704 701 696 695 697 695 687 684 685 683 683 680 679 678 678 677 677 679 681 686 693 696 697 698 701 704
758 757 755 756 757 756 749 741 737 733 727 725 720 722 725 724 723 718 721 728 728 728 726 724 721 717 713 709 705 702 699 696 693 691 687 683 682 682 681 678 676 676 677 677 678 682 684 689 693 695 696 696 701 703
757 755 755 754 752 751 750 743 736 731 729 718 719 720 721 720 718 719 724 724 730 731 729 726 724 719 712 707 702 697 696 694 691 688 687 687 684 680 677 675 675 676 677 675 672 679 685 689 691 694 694 698 703 704
754 754 752 750 750 748 741 736 733 724 723 716 713 716 717 718 717 720 721 726 725 725 726 726 724 718 710 702 696 696 693 691 686 683 684 685 684 683 681 680 678 677 679 679 676 678 686 690 691 693 695 696 699 703
753 751 745 740 745 739 728 727 724 721 716 714 711 713 714 716 716 714 716 715 716 717 721 721 724 719 713 708 701 702 701 700 697 694 690 691 692 693 691 691 687 687 687 686 689 691 693 694 696 697 697 698 700 699
754 747 747 749 731 729 723 719 718 716 715 711 713 712 713 713 717 715 715 713 714 712 715 714 715 716 712 709 708 704 704 705 703 701 696 698 697 698 700 699 698 698 699 699 700 701 702 701 699 699 698 698 700 702
750 735 740 720 717 720 713 715 714 713 711 712 711 711 712 713 714 715 713 710 711 713 714 714 710 711 710 710 708 706 707 706 703 701 701 699 698 699 699 699 701 704 703 701 700 700 701 701 702 702 703 705 706 704
744 724 720 719 715 713 712 709 709 711 711 713 709 710 710 712 713 714 711 712 711 712 714 714 713 709 709 709 709 708 707 706 705 706 706 705 704 704 703 703 705 708 706 705 704 703 703 703 703 704 703 704 706 706
725 719 716 711 713 709 710 707 707 708 706 706 709 712 711 708 711 713 710 714 714 714 714 713 713 712 711 710 710 708 708 708 709 708 709 710 711 711 712 712 713 712 711 711 711 709 709 709 709 709 708 709 710 711
718 711 711 710 708 706 705 703 701 699 700 703 710 708 708 705 708 709 713 713 714 713 711 710 711 711 711 711 710 709 706 703 705 706 706 709 713 716 716 715 715 715 716 718 718 717 716 716 716 715 714 715 716 716
709 706 705 702 703 702 696 695 696 700 702 703 705 705 707 709 710 712 713 714 713 711 712 712 712 711 709 707 709 710 710 709 706 707 711 715 717 719 719 720 720 720 720 720 721 722 722 721 721 719 719 719 719 720
700 701 700 696 696 691 692 697 699 702 702 703 705 704 703 706 710 712 713 714 714 714 713 712 712 711 710 709 709 711 714 716 717 717 717 719 721 723 724 724 724 725 725 724 724 723 723 724 724 725 726 727 729 726
697 697 694 695 693 696 697 696 699 699 701 702 703 703 704 707 709 710 712 713 714 714 715 715 711 713 716 716 716 717 718 720 721 722 722 722 724 726 726 727 727 727 728 728 728 728 730 729 730 731 732 732 732 732
691 690 689 689 694 697 698 697 700 700 699 699 701 700 700 702 704 703 710 711 711 712 714 715 715 717 718 719 719 720 721 722 723 724 725 726 727 727 727 728 729 730 731 731 731 733 734 734 734 734 735 736 736 736